OK2ZI Weather Reports


time (UTC)temp
C
wind
direction
speed
KPH
gust
KPH
rain 1hr
cm
rain 24hr
cm
rain mn
cm
humidity
%
barometer
mb
20260505095407 21 106 9.7 9.7 0.00 0.00 0.00 46 1006.0
20260505095206 21 192 22.5 22.5 0.00 0.00 0.00 44 1006.0
20260505095012 21 122 9.7 9.7 0.00 0.00 0.00 44 1006.0
20260505094607 20 120 22.5 22.5 0.00 0.00 0.00 44 1006.0
20260505094407 20 192 8.0 8.0 0.00 0.00 0.00 45 1006.0
20260505094207 20 42 14.5 14.5 0.00 0.00 0.00 44 1006.0
20260505094011 20 168 11.3 11.3 0.00 0.00 0.00 46 1006.0
20260505093807 20 72 24.1 24.1 0.00 0.00 0.00 46 1006.0
20260505093607 20 132 22.5 22.5 0.00 0.00 0.00 44 1006.0
20260505093407 21 124 12.9 12.9 0.00 0.00 0.00 43 1006.0
20260505093206 20 186 12.9 12.9 0.00 0.00 0.00 44 1006.0
20260505092807 21 157 12.9 12.9 0.00 0.00 0.00 44 1006.0
20260505092606 21 138 0.0 0.0 0.00 0.00 0.00 44 1006.0
20260505092407 21 168 9.7 9.7 0.00 0.00 0.00 44 1006.0
20260505092207 21 171 0.0 0.0 0.00 0.00 0.00 45 1006.0
20260505092011 21 168 0.0 0.0 0.00 0.00 0.00 44 1006.0
20260505091806 21 183 35.4 37.0 0.00 0.00 0.00 43 1006.0
20260505091606 20 151 11.3 11.3 0.00 0.00 0.00 44 1006.0
20260505091407 20 192 12.9 12.9 0.00 0.00 0.00 45 1006.0
20260505091206 20 192 8.0 8.0 0.00 0.00 0.00 45 1006.0
20260505091010 20 198 22.5 22.5 0.00 0.00 0.00 44 1006.0
20260505090543 19 156 9.7 9.7 0.00 0.00 0.00 46 1006.0
20260505090358 18 210 11.3 11.3 0.00 0.00 0.00 47 1006.0
20260505090120 18 204 11.3 11.3 0.00 0.00 0.00 47 1006.0
20260505085806 18 88 12.9 12.9 0.00 0.00 0.00 48 1006.0
20260505085607 18 83 14.5 14.5 0.00 0.00 0.00 49 1006.0
20260505085410 18 348 22.5 22.5 0.00 0.00 0.00 48 1007.0
20260505085206 18 102 12.9 12.9 0.00 0.00 0.00 49 1007.0
20260505085012 19 135 8.0 8.0 0.00 0.00 0.00 47 1006.0
20260505084809 19 216 22.5 22.5 0.00 0.00 0.00 46 1006.0
20260505084607 19 108 12.9 12.9 0.00 0.00 0.00 47 1006.0
20260505084407 18 94 25.7 29.0 0.00 0.00 0.00 47 1007.0
20260505084211 18 102 11.3 11.3 0.00 0.00 0.00 47 1007.0
20260505084013 18 96 12.9 12.9 0.00 0.00 0.00 47 1006.0
20260505083805 18 108 9.7 9.7 0.00 0.00 0.00 48 1006.0
20260505083608 18 106 22.5 22.5 0.00 0.00 0.00 48 1006.0
20260505083407 18 97 12.9 12.9 0.00 0.00 0.00 46 1007.0
20260505083206 18 72 11.3 11.3 0.00 0.00 0.00 47 1007.0
20260505083015 18 111 9.7 9.7 0.00 0.00 0.00 48 1007.0
20260505082807 18 126 22.5 22.5 0.00 0.00 0.00 46 1007.0
20260505082607 19 140 12.9 12.9 0.00 0.00 0.00 45 1007.0
20260505082406 19 138 0.0 0.0 0.00 0.00 0.00 45 1007.0
20260505082210 19 84 12.9 12.9 0.00 0.00 0.00 45 1007.0
20260505082011 18 186 8.0 8.0 0.00 0.00 0.00 47 1007.0
20260505081814 18 156 0.0 0.0 0.00 0.00 0.00 46 1007.0
20260505081606 18 204 0.0 0.0 0.00 0.00 0.00 49 1007.0
20260505081206 18 196 12.9 12.9 0.00 0.00 0.00 47 1007.0
20260505081016 17 186 0.0 0.0 0.00 0.00 0.00 50 1007.0
20260505080807 17 196 22.5 22.5 0.00 0.00 0.00 48 1007.0
20260505080608 17 192 9.7 9.7 0.00 0.00 0.00 49 1007.0
20260505080408 17 204 0.0 0.0 0.00 0.00 0.00 51 1007.0
20260505080216 17 84 11.3 11.3 0.00 0.00 0.00 50 1007.0
20260505080024 17 114 9.7 9.7 0.00 0.00 0.00 49 1007.0
20260505075812 17 134 8.0 8.0 0.00 0.00 0.00 50 1007.0
20260505075605 16 84 9.7 9.7 0.00 0.00 0.00 50 1007.0
20260505075407 16 84 8.0 8.0 0.00 0.00 0.00 50 1007.0
20260505075011 16 126 0.0 0.0 0.00 0.00 0.00 50 1007.0
20260505074806 16 186 12.9 12.9 0.00 0.00 0.00 50 1007.0
20260505074606 16 186 0.0 0.0 0.00 0.00 0.00 50 1007.0
20260505074207 16 150 12.9 12.9 0.00 0.00 0.00 50 1007.0
20260505074011 16 186 12.9 12.9 0.00 0.00 0.00 50 1007.0
20260505073807 16 139 8.0 8.0 0.00 0.00 0.00 50 1007.0
20260505073619 16 144 11.3 11.3 0.00 0.00 0.00 49 1007.0
20260505073407 17 82 11.3 11.3 0.00 0.00 0.00 50 1007.0
20260505073207 17 90 12.9 12.9 0.00 0.00 0.00 48 1007.0
20260505073017 17 116 11.3 11.3 0.00 0.00 0.00 47 1007.0
20260505072807 17 213 14.5 14.5 0.00 0.00 0.00 46 1007.0
20260505072606 17 186 8.0 8.0 0.00 0.00 0.00 47 1007.0
20260505072406 17 120 9.7 9.7 0.00 0.00 0.00 48 1007.0
20260505072206 17 190 12.9 12.9 0.00 0.00 0.00 47 1007.0
20260505072011 17 192 14.5 14.5 0.00 0.00 0.00 47 1006.0
20260505071807 17 156 0.0 0.0 0.00 0.00 0.00 46 1006.0
20260505071634 17 157 11.3 11.3 0.00 0.00 0.00 48 1006.0
20260505071407 17 88 0.0 0.0 0.00 0.00 0.00 47 1007.0
20260505071207 17 126 8.0 8.0 0.00 0.00 0.00 46 1007.0
20260505071013 17 156 8.0 8.0 0.00 0.00 0.00 47 1007.0
20260505070806 17 162 8.0 8.0 0.00 0.00 0.00 48 1007.0
20260505070607 16 186 22.5 22.5 0.00 0.00 0.00 50 1007.0
20260505070207 16 42 8.0 8.0 0.00 0.00 0.00 47 1007.0
20260505070024 17 60 12.9 12.9 0.00 0.00 0.00 46 1007.0
20260505065607 17 114 8.0 8.0 0.00 0.00 0.00 47 1007.0
20260505065407 17 120 11.3 11.3 0.00 0.00 0.00 46 1007.0
20260505065207 17 162 8.0 8.0 0.00 0.00 0.00 47 1007.0
20260505065012 16 120 0.0 0.0 0.00 0.00 0.00 47 1007.0
20260505064807 16 107 8.0 8.0 0.00 0.00 0.00 47 1007.0
20260505064607 16 174 8.0 8.0 0.00 0.00 0.00 47 1007.0
20260505064407 16 168 8.0 8.0 0.00 0.00 0.00 48 1007.0
20260505064011 16 144 9.7 9.7 0.00 0.00 0.00 49 1007.0
20260505063806 16 151 12.9 12.9 0.00 0.00 0.00 48 1007.0
20260505063606 16 88 0.0 0.0 0.00 0.00 0.00 49 1007.0
20260505063407 16 156 12.9 12.9 0.00 0.00 0.00 49 1007.0
20260505063207 16 120 11.3 11.3 0.00 0.00 0.00 48 1007.0
20260505063015 16 126 11.3 11.3 0.00 0.00 0.00 48 1007.0
20260505062807 16 126 0.0 0.0 0.00 0.00 0.00 49 1007.0
20260505062606 15 134 9.7 9.7 0.00 0.00 0.00 48 1007.0
20260505062408 16 168 12.9 12.9 0.00 0.00 0.00 48 1007.0
20260505062206 16 151 0.0 0.0 0.00 0.00 0.00 48 1007.0
20260505062011 16 151 8.0 8.0 0.00 0.00 0.00 48 1007.0
20260505061806 16 151 0.0 0.0 0.00 0.00 0.00 48 1007.0
20260505061406 15 162 0.0 0.0 0.00 0.00 0.00 47 1007.0
20260505061206 15 90 8.0 8.0 0.00 0.00 0.00 48 1007.0
20260505060807 16 132 0.0 0.0 0.00 0.00 0.00 47 1007.0
20260505060607 16 120 0.0 0.0 0.00 0.00 0.00 47 1007.0
20260505060205 15 114 0.0 0.0 0.00 0.00 0.00 48 1007.0
20260505060021 15 102 9.7 9.7 0.00 0.00 0.00 51 1007.0
20260505055806 15 102 0.0 0.0 0.00 0.00 0.00 50 1007.0
20260505055606 15 88 0.0 0.0 0.00 0.00 0.00 50 1007.0
20260505055207 15 88 0.0 0.0 0.00 0.00 0.00 49 1007.0
20260505055011 15 87 0.0 0.0 0.00 0.00 0.00 49 1007.0
20260505054807 15 87 0.0 0.0 0.00 0.00 0.00 49 1007.0
20260505054012 15 96 9.7 9.7 0.00 0.00 0.00 49 1007.0
20260505053806 15 93 0.0 0.0 0.00 0.00 0.00 49 1007.0
20260505053206 14 84 0.0 0.0 0.00 0.00 0.00 50 1007.0
20260505053016 14 88 11.3 11.3 0.00 0.00 0.00 51 1007.0
20260505052806 14 66 11.3 11.3 0.00 0.00 0.00 51 1007.0
20260505052606 14 61 11.3 11.3 0.00 0.00 0.00 51 1007.0
20260505052207 14 61 0.0 0.0 0.00 0.00 0.00 52 1007.0
20260505052011 14 61 9.7 9.7 0.00 0.00 0.00 51 1007.0
20260505051807 14 60 8.0 8.0 0.00 0.00 0.00 50 1007.0
20260505051606 14 60 8.0 8.0 0.00 0.00 0.00 51 1007.0
20260505051407 14 61 0.0 0.0 0.00 0.00 0.00 51 1007.0
20260505051206 14 48 0.0 0.0 0.00 0.00 0.00 50 1007.0
20260505050807 13 48 9.7 9.7 0.00 0.00 0.00 52 1007.0
20260505050606 13 48 0.0 0.0 0.00 0.00 0.00 54 1007.0
20260505050406 12 48 8.0 8.0 0.00 0.00 0.00 53 1007.0
20260505041606 8 48 0.0 0.0 0.00 0.00 0.00 69 1007.0
20260505041407 8 48 0.0 0.0 0.00 0.00 0.00 70 1007.0
20260505041206 8 48 0.0 0.0 0.00 0.00 0.00 70 1007.0
20260505041011 8 48 0.0 0.0 0.00 0.00 0.00 69 1007.0
20260505040807 8 48 0.0 0.0 0.00 0.00 0.00 70 1007.0
20260505040607 8 48 0.0 0.0 0.00 0.00 0.00 69 1007.0
20260505040407 8 48 0.0 0.0 0.00 0.00 0.00 71 1007.0
20260505040207 7 48 0.0 0.0 0.00 0.00 0.00 70 1007.0
20260505040018 7 48 0.0 0.0 0.00 0.00 0.00 72 1007.0
20260505035807 7 48 0.0 0.0 0.00 0.00 0.00 72 1007.0
20260505035407 7 48 0.0 0.0 0.00 0.00 0.00 73 1007.0
20260505035207 7 48 0.0 0.0 0.00 0.00 0.00 73 1007.0
20260505035011 7 48 0.0 0.0 0.00 0.00 0.00 72 1007.0
20260505034807 8 48 0.0 0.0 0.00 0.00 0.00 70 1007.0
20260505034606 8 48 0.0 0.0 0.00 0.00 0.00 70 1007.0
20260505034207 8 48 9.7 9.7 0.00 0.00 0.00 70 1007.0
20260505034010 8 48 8.0 8.0 0.00 0.00 0.00 70 1007.0
20260505033806 8 47 12.9 12.9 0.00 0.00 0.00 69 1007.0
20260505033606 8 42 8.0 8.0 0.00 0.00 0.00 70 1007.0
20260505033406 8 42 0.0 0.0 0.00 0.00 0.00 70 1007.0
20260505033015 8 42 8.0 8.0 0.00 0.00 0.00 71 1007.0
20260505032406 8 39 11.3 11.3 0.00 0.00 0.00 69 1007.0
20260505032206 8 38 9.7 9.7 0.00 0.00 0.00 69 1007.0
20260505032010 8 32 0.0 0.0 0.00 0.00 0.00 69 1007.0
20260505031807 8 32 12.9 12.9 0.00 0.00 0.00 70 1007.0
20260505031607 8 32 8.0 8.0 0.00 0.00 0.00 72 1007.0
20260505030806 8 32 0.0 0.0 0.00 0.00 0.00 71 1007.0
20260505030606 8 32 0.0 0.0 0.00 0.00 0.00 71 1007.0
20260505030407 8 32 0.0 0.0 0.00 0.00 0.00 70 1007.0
20260505030205 8 32 0.0 0.0 0.00 0.00 0.00 69 1007.0
20260505030018 8 32 0.0 0.0 0.00 0.00 0.00 69 1007.0
20260505025807 9 32 8.0 8.0 0.00 0.00 0.00 69 1007.0
20260505025407 9 32 8.0 8.0 0.00 0.00 0.00 67 1007.0
20260505025206 8 32 11.3 11.3 0.00 0.00 0.00 67 1007.0
20260505025009 8 32 8.0 8.0 0.00 0.00 0.00 67 1007.0
20260505024806 8 32 11.3 11.3 0.00 0.00 0.00 68 1007.0
20260505024406 8 32 0.0 0.0 0.00 0.00 0.00 69 1007.0
20260505024009 9 32 9.7 9.7 0.00 0.00 0.00 68 1007.0
20260505023806 8 32 12.9 12.9 0.00 0.00 0.00 67 1007.0
20260505023605 8 31 0.0 0.0 0.00 0.00 0.00 67 1007.0
20260505023406 8 31 9.7 9.7 0.00 0.00 0.00 68 1007.0
20260505023206 8 31 0.0 0.0 0.00 0.00 0.00 69 1007.0
20260505023015 8 31 0.0 0.0 0.00 0.00 0.00 69 1007.0
20260505022806 8 31 0.0 0.0 0.00 0.00 0.00 70 1007.0
20260505022605 8 31 12.9 12.9 0.00 0.00 0.00 70 1007.0
20260505022206 8 31 11.3 11.3 0.00 0.00 0.00 69 1007.0
20260505022010 8 31 0.0 0.0 0.00 0.00 0.00 69 1007.0
20260505021806 8 31 8.0 8.0 0.00 0.00 0.00 68 1007.0
20260505021607 9 31 12.9 12.9 0.00 0.00 0.00 67 1007.0
20260505021407 9 31 12.9 12.9 0.00 0.00 0.00 67 1007.0
20260505021011 10 31 8.0 8.0 0.00 0.00 0.00 65 1008.0
20260505020806 10 31 9.7 9.7 0.00 0.00 0.00 65 1008.0
20260505020606 9 31 12.9 12.9 0.00 0.00 0.00 65 1008.0
20260505020406 9 31 0.0 0.0 0.00 0.00 0.00 65 1007.0
20260505015806 9 31 0.0 0.0 0.00 0.00 0.00 68 1007.0
20260505015606 9 31 12.9 12.9 0.00 0.00 0.00 67 1007.0
20260505015407 9 31 8.0 8.0 0.00 0.00 0.00 68 1008.0
20260505015206 8 31 0.0 0.0 0.00 0.00 0.00 68 1008.0
20260505015011 8 31 12.9 12.9 0.00 0.00 0.00 68 1008.0
20260505014806 8 31 8.0 8.0 0.00 0.00 0.00 66 1008.0
20260505014606 8 31 12.9 12.9 0.00 0.00 0.00 68 1008.0
20260505014407 8 48 11.3 11.3 0.00 0.00 0.00 69 1008.0
20260505014206 8 66 8.0 8.0 0.00 0.00 0.00 68 1008.0
20260505014011 9 66 8.0 8.0 0.00 0.00 0.00 68 1007.0
20260505013606 10 66 9.7 9.7 0.00 0.00 0.00 66 1007.0
20260505013406 10 66 0.0 0.0 0.00 0.00 0.00 65 1007.0
20260505013206 10 66 9.7 9.7 0.00 0.00 0.00 64 1007.0
20260505013014 10 66 8.0 8.0 0.00 0.00 0.00 64 1007.0
20260505012805 10 66 11.3 11.3 0.00 0.00 0.00 63 1007.0
20260505012606 10 66 8.0 8.0 0.00 0.00 0.00 63 1007.0
20260505012011 9 66 0.0 0.0 0.00 0.00 0.00 67 1008.0
20260505011806 9 66 0.0 0.0 0.00 0.00 0.00 67 1008.0
20260505011605 9 66 0.0 0.0 0.00 0.00 0.00 67 1008.0
20260505011405 9 66 0.0 0.0 0.00 0.00 0.00 67 1008.0
20260505011206 9 66 0.0 0.0 0.00 0.00 0.00 68 1008.0
20260505011011 9 66 0.0 0.0 0.00 0.00 0.00 68 1008.0
20260505010806 9 66 0.0 0.0 0.00 0.00 0.00 68 1008.0
20260505010606 9 66 0.0 0.0 0.00 0.00 0.00 68 1008.0
20260505010406 9 66 0.0 0.0 0.00 0.00 0.00 67 1008.0
20260505010206 10 66 0.0 0.0 0.00 0.00 0.00 65 1008.0
20260505010022 10 66 0.0 0.0 0.00 0.00 0.00 63 1008.0
20260505005806 10 66 0.0 0.0 0.00 0.00 0.00 61 1008.0
20260505005607 11 66 0.0 0.0 0.00 0.00 0.00 60 1008.0
20260505005406 11 66 0.0 0.0 0.00 0.00 0.00 60 1007.0
20260505005206 11 66 0.0 0.0 0.00 0.00 0.00 59 1007.0
20260505005010 11 66 8.0 8.0 0.00 0.00 0.00 58 1008.0
20260505004807 11 66 0.0 0.0 0.00 0.00 0.00 57 1008.0
20260505004606 11 66 8.0 8.0 0.00 0.00 0.00 57 1008.0
20260505004407 10 66 11.3 11.3 0.00 0.00 0.00 58 1008.0
20260505004206 10 66 12.9 12.9 0.00 0.00 0.00 59 1008.0
20260505004011 10 66 0.0 0.0 0.00 0.00 0.00 61 1008.0
20260505003606 9 66 0.0 0.0 0.00 0.00 0.00 63 1008.0
20260505003406 9 66 0.0 0.0 0.00 0.00 0.00 65 1008.0
20260505003206 9 66 0.0 0.0 0.00 0.00 0.00 66 1008.0
20260505003014 9 66 0.0 0.0 0.00 0.00 0.00 66 1008.0
20260505002806 9 66 0.0 0.0 0.00 0.00 0.00 67 1008.0
20260505002606 9 66 0.0 0.0 0.00 0.00 0.00 67 1008.0
20260505002407 9 66 0.0 0.0 0.00 0.00 0.00 67 1008.0
20260505002206 9 66 0.0 0.0 0.00 0.00 0.00 66 1008.0
20260505002010 10 66 0.0 0.0 0.00 0.00 0.00 63 1008.0
20260505001607 11 66 0.0 0.0 0.00 0.00 0.00 60 1008.0
20260505001406 11 66 0.0 0.0 0.00 0.00 0.00 58 1008.0
20260505001011 11 66 0.0 0.0 0.00 0.00 0.00 57 1008.0
20260505000807 11 66 11.3 11.3 0.00 0.00 0.00 57 1008.0
20260505000606 11 66 8.0 8.0 0.00 0.00 0.00 58 1008.0
20260505000406 11 66 0.0 0.0 0.00 0.00 0.00 58 1008.0
20260505000207 11 66 0.0 0.0 0.00 0.00 0.00 59 1008.0
20260505000018 11 66 8.0 8.0 0.00 0.00 0.00 59 1008.0
20260504235806 10 66 0.0 0.0 0.00 0.00 0.00 60 1008.0
20260504235605 10 66 0.0 0.0 0.00 0.00 0.00 61 1008.0
20260504235207 10 66 0.0 0.0 0.00 0.00 0.00 62 1008.0
20260504235009 10 66 0.0 0.0 0.00 0.00 0.00 62 1008.0
20260504234806 10 66 0.0 0.0 0.00 0.00 0.00 62 1008.0
20260504234606 10 66 0.0 0.0 0.00 0.00 0.00 63 1008.0
20260504234406 10 66 0.0 0.0 0.00 0.00 0.00 64 1008.0
20260504234207 10 66 0.0 0.0 0.00 0.00 0.00 63 1008.0
20260504234011 10 66 0.0 0.0 0.00 0.00 0.00 62 1008.0
20260504233806 11 66 0.0 0.0 0.00 0.00 0.00 61 1008.0
20260504233606 12 66 0.0 0.0 0.00 0.00 0.00 57 1008.0
20260504233406 12 66 0.0 0.0 0.00 0.00 0.00 55 1008.0
20260504233206 12 66 0.0 0.0 0.00 0.00 0.00 55 1008.0
20260504233014 12 66 0.0 0.0 0.00 0.00 0.00 55 1008.0
20260504232806 12 66 0.0 0.0 0.00 0.00 0.00 54 1008.0
20260504232406 13 66 0.0 0.0 0.00 0.00 0.00 54 1008.0
20260504232206 13 66 0.0 0.0 0.00 0.00 0.00 53 1008.0
20260504232011 13 66 8.0 8.0 0.00 0.00 0.00 53 1008.0
20260504231807 13 66 0.0 0.0 0.00 0.00 0.00 53 1008.0
20260504231606 13 66 8.0 8.0 0.00 0.00 0.00 53 1008.0
20260504231406 13 66 0.0 0.0 0.00 0.00 0.00 53 1008.0
20260504231008 13 66 9.7 9.7 0.00 0.00 0.00 53 1008.0
20260504230807 13 66 9.7 9.7 0.00 0.00 0.00 53 1008.0
20260504230606 13 66 0.0 0.0 0.00 0.00 0.00 53 1008.0
20260504230407 13 66 9.7 9.7 0.00 0.00 0.00 53 1008.0
20260504230205 13 66 0.0 0.0 0.00 0.00 0.00 53 1008.0
20260504230017 13 66 0.0 0.0 0.00 0.00 0.00 52 1008.0
20260504225605 13 66 0.0 0.0 0.00 0.00 0.00 52 1008.0
20260504225407 13 66 0.0 0.0 0.00 0.00 0.00 52 1008.0
20260504225009 13 66 0.0 0.0 0.00 0.00 0.00 52 1008.0
20260504224806 13 66 0.0 0.0 0.00 0.00 0.00 52 1008.0
20260504224606 13 66 0.0 0.0 0.00 0.00 0.00 51 1008.0
20260504224406 13 66 0.0 0.0 0.00 0.00 0.00 51 1009.0
20260504224206 13 66 8.0 8.0 0.00 0.00 0.00 51 1009.0
20260504224010 13 66 0.0 0.0 0.00 0.00 0.00 51 1009.0
20260504223807 13 66 0.0 0.0 0.00 0.00 0.00 51 1009.0
20260504223607 13 66 0.0 0.0 0.00 0.00 0.00 51 1009.0
20260504223407 13 66 0.0 0.0 0.00 0.00 0.00 51 1009.0
20260504223206 14 66 0.0 0.0 0.00 0.00 0.00 51 1009.0
20260504222606 14 66 0.0 0.0 0.00 0.00 0.00 50 1009.0
20260504222406 14 66 0.0 0.0 0.00 0.00 0.00 50 1009.0
20260504222206 14 66 9.7 9.7 0.00 0.00 0.00 50 1009.0
20260504221605 14 72 9.7 9.7 0.00 0.00 0.00 50 1009.0
20260504221406 14 72 0.0 0.0 0.00 0.00 0.00 50 1009.0
20260504221207 14 72 11.3 11.3 0.00 0.00 0.00 50 1009.0
20260504221009 15 72 8.0 8.0 0.00 0.00 0.00 49 1009.0
20260504220807 15 78 0.0 0.0 0.00 0.00 0.00 50 1009.0
20260504220605 15 78 8.0 8.0 0.00 0.00 0.00 49 1009.0
20260504220407 15 81 0.0 0.0 0.00 0.00 0.00 49 1009.0
20260504220206 15 78 0.0 0.0 0.00 0.00 0.00 50 1009.0
20260504220021 15 78 0.0 0.0 0.00 0.00 0.00 49 1009.0
20260504215606 15 78 0.0 0.0 0.00 0.00 0.00 49 1009.0
20260504215406 15 78 0.0 0.0 0.00 0.00 0.00 50 1009.0
20260504215207 15 78 0.0 0.0 0.00 0.00 0.00 50 1009.0
20260504215008 15 78 0.0 0.0 0.00 0.00 0.00 49 1009.0
20260504214806 15 78 0.0 0.0 0.00 0.00 0.00 50 1009.0
20260504214606 15 78 0.0 0.0 0.00 0.00 0.00 49 1009.0
20260504214407 15 78 0.0 0.0 0.00 0.00 0.00 49 1009.0
20260504214207 15 78 0.0 0.0 0.00 0.00 0.00 50 1009.0
20260504214010 15 78 0.0 0.0 0.00 0.00 0.00 49 1009.0
20260504213807 15 78 0.0 0.0 0.00 0.00 0.00 49 1009.0
20260504213605 15 78 0.0 0.0 0.00 0.00 0.00 49 1009.0
20260504213407 15 78 0.0 0.0 0.00 0.00 0.00 49 1009.0
20260504213206 15 78 0.0 0.0 0.00 0.00 0.00 49 1009.0
20260504213013 15 78 12.9 12.9 0.00 0.00 0.00 49 1009.0
20260504212806 15 78 0.0 0.0 0.00 0.00 0.00 49 1009.0
20260504212606 15 78 0.0 0.0 0.00 0.00 0.00 49 1009.0
20260504212406 15 78 0.0 0.0 0.00 0.00 0.00 49 1009.0
20260504212206 15 78 0.0 0.0 0.00 0.00 0.00 48 1009.0
20260504212010 15 78 0.0 0.0 0.00 0.00 0.00 48 1009.0
20260504211807 15 78 0.0 0.0 0.00 0.00 0.00 48 1009.0
20260504211607 15 78 8.0 8.0 0.00 0.00 0.00 48 1009.0
20260504211406 15 74 0.0 0.0 0.00 0.00 0.00 49 1009.0
20260504211206 15 74 9.7 9.7 0.00 0.00 0.00 49 1009.0
20260504211009 15 84 0.0 0.0 0.00 0.00 0.00 49 1009.0
20260504210806 15 84 0.0 0.0 0.00 0.00 0.00 49 1009.0
20260504210406 15 84 0.0 0.0 0.00 0.00 0.00 48 1009.0
20260504210205 15 87 8.0 8.0 0.00 0.00 0.00 48 1009.0
20260504210018 16 87 8.0 8.0 0.00 0.00 0.00 48 1009.0
20260504205804 16 84 0.0 0.0 0.00 0.00 0.00 48 1009.0
20260504205605 16 84 0.0 0.0 0.00 0.00 0.00 48 1009.0
20260504205406 16 84 0.0 0.0 0.00 0.00 0.00 47 1009.0
20260504205207 16 88 9.7 9.7 0.00 0.00 0.00 48 1009.0
20260504205011 16 88 0.0 0.0 0.00 0.00 0.00 48 1009.0
20260504204807 16 88 0.0 0.0 0.00 0.00 0.00 48 1009.0
20260504204606 16 88 8.0 8.0 0.00 0.00 0.00 48 1009.0
20260504204406 16 88 0.0 0.0 0.00 0.00 0.00 47 1009.0
20260504203806 16 88 8.0 8.0 0.00 0.00 0.00 47 1009.0
20260504203406 16 84 0.0 0.0 0.00 0.00 0.00 47 1009.0
20260504203207 16 105 0.0 0.0 0.00 0.00 0.00 47 1009.0
20260504203014 16 105 0.0 0.0 0.00 0.00 0.00 47 1009.0
20260504202806 16 105 0.0 0.0 0.00 0.00 0.00 47 1009.0
20260504202606 16 105 8.0 8.0 0.00 0.00 0.00 47 1009.0
20260504202406 16 105 8.0 8.0 0.00 0.00 0.00 47 1009.0
20260504202010 16 105 0.0 0.0 0.00 0.00 0.00 47 1009.0
20260504201807 16 105 0.0 0.0 0.00 0.00 0.00 47 1009.0
20260504201606 16 105 0.0 0.0 0.00 0.00 0.00 47 1009.0
20260504201406 16 105 0.0 0.0 0.00 0.00 0.00 47 1009.0
20260504201207 16 108 0.0 0.0 0.00 0.00 0.00 48 1009.0
20260504201009 16 108 0.0 0.0 0.00 0.00 0.00 48 1009.0
20260504200606 16 108 0.0 0.0 0.00 0.00 0.00 49 1009.0
20260504200406 16 108 0.0 0.0 0.00 0.00 0.00 49 1010.0
20260504200207 16 108 9.7 9.7 0.00 0.00 0.00 49 1010.0
20260504200018 16 108 0.0 0.0 0.00 0.00 0.00 49 1010.0
20260504195807 16 108 0.0 0.0 0.00 0.00 0.00 50 1010.0
20260504195606 16 108 0.0 0.0 0.00 0.00 0.00 50 1010.0
20260504195407 16 108 0.0 0.0 0.00 0.00 0.00 49 1009.0
20260504195206 16 108 0.0 0.0 0.00 0.00 0.00 48 1009.0
20260504194606 16 108 0.0 0.0 0.00 0.00 0.00 47 1010.0
20260504194206 16 108 9.7 9.7 0.00 0.00 0.00 47 1009.0
20260504194011 16 102 9.7 9.7 0.00 0.00 0.00 47 1010.0
20260504193606 17 102 0.0 0.0 0.00 0.00 0.00 47 1010.0
20260504193406 17 102 0.0 0.0 0.00 0.00 0.00 47 1010.0
20260504193205 17 102 12.9 12.9 0.00 0.00 0.00 47 1010.0
20260504193015 17 102 9.7 9.7 0.00 0.00 0.00 47 1010.0
20260504192807 17 102 0.0 0.0 0.00 0.00 0.00 47 1010.0
20260504192606 17 105 0.0 0.0 0.00 0.00 0.00 48 1010.0
20260504192406 17 105 0.0 0.0 0.00 0.00 0.00 48 1009.0
20260504192206 17 105 0.0 0.0 0.00 0.00 0.00 48 1009.0
20260504192012 16 105 0.0 0.0 0.00 0.00 0.00 48 1010.0
20260504191605 16 105 8.0 8.0 0.00 0.00 0.00 48 1010.0
20260504191207 16 105 0.0 0.0 0.00 0.00 0.00 48 1010.0
20260504190807 16 105 0.0 0.0 0.00 0.00 0.00 50 1010.0
20260504190606 16 105 0.0 0.0 0.00 0.00 0.00 50 1010.0
20260504190407 16 105 0.0 0.0 0.00 0.00 0.00 49 1010.0
20260504190207 16 105 0.0 0.0 0.00 0.00 0.00 49 1010.0
20260504190022 16 105 9.7 9.7 0.00 0.00 0.00 48 1010.0
20260504185407 16 105 0.0 0.0 0.00 0.00 0.00 48 1010.0
20260504185206 17 105 0.0 0.0 0.00 0.00 0.00 47 1010.0
20260504185012 17 105 0.0 0.0 0.00 0.00 0.00 46 1010.0
20260504184807 17 105 0.0 0.0 0.00 0.00 0.00 43 1010.0
20260504184608 17 105 0.0 0.0 0.00 0.00 0.00 43 1010.0
20260504184407 17 105 0.0 0.0 0.00 0.00 0.00 43 1009.0
20260504184207 17 105 0.0 0.0 0.00 0.00 0.00 43 1009.0
20260504184011 17 105 0.0 0.0 0.00 0.00 0.00 43 1009.0
20260504183807 17 105 0.0 0.0 0.00 0.00 0.00 43 1009.0
20260504183206 18 105 0.0 0.0 0.00 0.00 0.00 42 1009.0
20260504183014 18 105 0.0 0.0 0.00 0.00 0.00 41 1009.0
20260504182606 18 105 0.0 0.0 0.00 0.00 0.00 41 1009.0
20260504182207 18 103 0.0 0.0 0.00 0.00 0.00 40 1009.0
20260504182011 18 102 0.0 0.0 0.00 0.00 0.00 40 1009.0
20260504181407 18 144 0.0 0.0 0.00 0.00 0.00 40 1009.0
20260504181207 18 140 0.0 0.0 0.00 0.00 0.00 41 1009.0
20260504180805 18 140 0.0 0.0 0.00 0.00 0.00 40 1009.0
20260504180604 19 140 0.0 0.0 0.00 0.00 0.00 40 1009.0
20260504180406 19 140 0.0 0.0 0.00 0.00 0.00 40 1009.0
20260504180207 19 140 0.0 0.0 0.00 0.00 0.00 40 1009.0
20260504180022 19 140 0.0 0.0 0.00 0.00 0.00 39 1009.0
20260504175806 19 140 0.0 0.0 0.00 0.00 0.00 39 1009.0
20260504175607 20 140 0.0 0.0 0.00 0.00 0.00 39 1009.0
20260504175407 20 174 0.0 0.0 0.00 0.00 0.00 40 1009.0
20260504175206 20 174 0.0 0.0 0.00 0.00 0.00 39 1009.0
20260504175012 20 174 0.0 0.0 0.00 0.00 0.00 38 1009.0
20260504174606 20 174 0.0 0.0 0.00 0.00 0.00 38 1009.0
20260504174406 20 174 0.0 0.0 0.00 0.00 0.00 39 1009.0
20260504174210 20 174 0.0 0.0 0.00 0.00 0.00 39 1009.0
20260504174011 20 174 0.0 0.0 0.00 0.00 0.00 39 1009.0
20260504173806 20 174 0.0 0.0 0.00 0.00 0.00 38 1009.0
20260504173606 20 174 0.0 0.0 0.00 0.00 0.00 38 1009.0
20260504173406 20 174 0.0 0.0 0.00 0.00 0.00 38 1009.0
20260504173206 20 174 0.0 0.0 0.00 0.00 0.00 38 1009.0
20260504173014 21 174 8.0 8.0 0.00 0.00 0.00 37 1009.0
20260504172806 21 174 0.0 0.0 0.00 0.00 0.00 37 1009.0
20260504172607 21 174 0.0 0.0 0.00 0.00 0.00 36 1009.0
20260504172407 21 174 12.9 12.9 0.00 0.00 0.00 36 1009.0
20260504172211 21 168 0.0 0.0 0.00 0.00 0.00 36 1009.0
20260504172011 21 168 0.0 0.0 0.00 0.00 0.00 36 1009.0
20260504171807 21 174 0.0 0.0 0.00 0.00 0.00 35 1009.0
20260504171607 21 174 0.0 0.0 0.00 0.00 0.00 35 1009.0
20260504171406 21 179 8.0 8.0 0.00 0.00 0.00 35 1009.0
20260504171206 22 168 0.0 0.0 0.00 0.00 0.00 34 1009.0
20260504170806 22 186 11.3 11.3 0.00 0.00 0.00 34 1009.0
20260504170606 22 192 0.0 0.0 0.00 0.00 0.00 34 1009.0
20260504170406 22 198 0.0 0.0 0.00 0.00 0.00 33 1009.0
20260504170206 22 198 9.7 9.7 0.00 0.00 0.00 34 1009.0
20260504160406 25 180 14.5 14.5 0.00 0.00 0.00 34 1010.0
20260504160207 25 135 0.0 0.0 0.00 0.00 0.00 33 1010.0
20260504151011 25 174 14.5 14.5 0.00 0.00 0.00 35 1010.0
20260504150806 25 126 22.5 22.5 0.00 0.00 0.00 35 1010.0
20260504150406 25 120 24.1 24.1 0.00 0.00 0.00 35 1010.0
20260504150207 25 126 11.3 11.3 0.00 0.00 0.00 36 1010.0
20260504141205 25 126 12.9 12.9 0.00 0.00 0.00 36 1010.0
20260504141009 25 191 8.0 8.0 0.00 0.00 0.00 37 1010.0
20260504140806 25 150 11.3 11.3 0.00 0.00 0.00 37 1010.0
20260504140605 25 138 0.0 0.0 0.00 0.00 0.00 36 1010.0
20260504140406 26 120 11.3 11.3 0.00 0.00 0.00 36 1010.0
20260504140206 25 198 12.9 12.9 0.00 0.00 0.00 36 1010.0
20260504130805 25 180 30.6 32.2 0.00 0.00 0.00 35 1011.0
20260504130406 25 196 25.7 29.0 0.00 0.00 0.00 36 1010.0
20260504130206 25 180 41.8 48.3 0.00 0.00 0.00 37 1010.0
20260504120209 23 186 29.0 33.8 0.00 0.00 0.00 41 1012.0
20260504110608 23 195 11.3 11.3 0.00 0.00 0.00 41 1012.0
20260504110413 23 180 12.9 12.9 0.00 0.00 0.00 41 1012.0
20260504100212 20 184 9.7 9.7 0.00 0.00 0.00 47 1013.0